7L2IWN-13 Weather Reports


time (UTC)temp
F
wind
direction
speed
knots
gust
knots
rain 1hr
in
rain 24hr
in
rain mn
in
humidity
%
barometer
mb
20260506131605 57 297 1.7 1.7 0.00 0.00 0.00 91 1017.0
20260506130405 59 182 0.0 0.9 0.00 0.00 0.00 88 1017.2
20260506125204 58 209 2.6 2.6 0.00 0.00 0.00 89 1017.3
20260506124004 58 189 0.9 0.9 0.00 0.00 0.00 90 1017.3
20260506122807 58 189 0.9 0.9 0.00 0.00 0.00 90 1017.3
20260506121604 58 189 0.9 0.9 0.00 0.00 0.00 90 1017.2
20260506120405 58 227 0.0 0.0 0.00 0.00 0.00 90 1017.3
20260506115204 58 242 0.9 1.7 0.00 0.00 0.00 90 1017.2
20260506114007 58 235 1.7 1.7 0.00 0.00 0.00 89 1017.5
20260506112806 58 230 1.7 2.6 0.00 0.00 0.00 90 1017.4
20260506111606 59 283 1.7 1.7 0.00 0.00 0.00 89 1017.0
20260506110405 59 283 1.7 1.7 0.00 0.00 0.00 89 1017.0
20260506105205 59 283 1.7 1.7 0.00 0.00 0.00 89 1017.1
20260506104005 59 283 1.7 1.7 0.00 0.00 0.00 89 1017.1
20260506102806 60 252 0.9 1.7 0.00 0.00 0.00 86 1017.3
20260506101606 60 203 1.7 1.7 0.00 0.00 0.00 86 1017.4
20260506100405 61 217 1.7 1.7 0.00 0.00 0.00 87 1017.0
20260506095205 61 189 1.7 1.7 0.00 0.00 0.00 86 1016.8
20260506094005 62 234 1.7 1.7 0.00 0.00 0.00 84 1016.5
20260506092806 62 136 0.0 0.0 0.00 0.00 0.00 82 1016.6
20260506091604 62 177 0.9 1.7 0.00 0.00 0.00 83 1017.0
20260506090404 63 174 0.9 0.9 0.00 0.00 0.00 80 1016.5
20260506085205 64 1 0.0 0.0 0.00 0.00 0.00 79 1016.8
20260506084005 65 132 0.0 0.0 0.00 0.00 0.00 76 1016.8
20260506082804 65 134 0.9 0.9 0.00 0.00 0.00 77 1016.4
20260506080405 65 276 0.0 0.9 0.00 0.00 0.00 74 1017.1
20260506071604 66 3 0.0 0.0 0.00 0.00 0.00 70 1016.8
20260506070406 66 336 0.0 0.0 0.00 0.00 0.00 69 1016.9
20260506061605 67 11 0.9 0.9 0.00 0.00 0.00 67 1017.4
20260506060405 66 334 0.9 1.7 0.00 0.00 0.00 68 1017.2
20260506050544 66 138 0.9 2.6 0.00 0.00 0.00 67 1017.7
20260506044145 66 266 0.9 1.7 0.00 0.00 0.00 66 1018.0
20260506042946 66 126 0.0 0.0 0.00 0.00 0.00 65 1018.0
20260506041747 66 101 0.9 2.6 0.00 0.00 0.00 65 1018.5
20260506040545 66 40 0.0 1.7 0.00 0.00 0.00 64 1018.3
20260506035346 66 142 0.0 0.9 0.00 0.00 0.00 64 1018.6
20260506034145 68 80 0.9 1.7 0.00 0.00 0.00 62 1018.8
20260506032944 66 102 0.9 2.6 0.00 0.00 0.00 64 1018.8
20260506031745 65 32 1.7 2.6 0.00 0.00 0.00 64 1018.7
20260506030545 65 43 2.6 4.3 0.00 0.00 0.00 64 1018.8
20260506025344 65 31 1.7 4.3 0.00 0.00 0.00 63 1019.1
20260506024145 64 42 1.7 4.3 0.00 0.00 0.00 65 1019.1
20260506022944 64 25 2.6 5.2 0.00 0.00 0.00 65 1019.5
20260506021745 64 85 5.2 5.2 0.00 0.00 0.00 65 1019.6
20260506020544 63 82 0.9 2.6 0.00 0.00 0.00 66 1019.8
20260506015345 63 94 4.3 5.2 0.00 0.00 0.00 65 1019.9
20260506014144 63 48 1.7 2.6 0.00 0.00 0.00 66 1020.2
20260506012944 62 104 1.7 2.6 0.00 0.00 0.00 67 1020.3
20260506011745 63 52 2.6 5.2 0.00 0.00 0.00 65 1020.5
20260506010546 63 81 0.0 0.9 0.00 0.00 0.00 65 1020.4
20260506005345 64 125 0.9 2.6 0.00 0.00 0.00 63 1020.6
20260506004147 62 76 0.0 0.9 0.00 0.00 0.00 64 1020.7
20260506002947 62 102 1.7 1.7 0.00 0.00 0.00 65 1020.8
20260506001744 59 85 2.6 4.3 0.00 0.00 0.00 72 1020.7
20260506000550 59 51 0.0 1.7 0.00 0.00 0.00 71 1020.9
20260505235346 58 73 0.0 0.0 0.00 0.00 0.00 73 1021.1
20260505234147 58 103 0.0 0.0 0.00 0.00 0.00 75 1021.0
20260505232946 57 16 0.9 0.9 0.00 0.00 0.00 80 1021.5
20260505231746 56 2 0.9 2.6 0.00 0.00 0.00 80 1021.5
20260505230545 55 58 0.9 1.7 0.00 0.00 0.00 81 1021.7
20260505225346 55 331 0.0 0.0 0.00 0.00 0.00 82 1021.6
20260505224146 54 175 0.0 0.0 0.00 0.00 0.00 83 1021.7
20260505221750 53 88 0.0 0.0 0.00 0.00 0.00 87 1021.6
20260505220547 52 22 0.0 0.0 0.00 0.00 0.00 89 1021.6
20260505215347 51 30 0.0 0.0 0.00 0.00 0.00 91 1021.6
20260505214148 50 22 0.0 0.0 0.00 0.00 0.00 92 1021.5
20260505212946 50 25 0.0 0.0 0.00 0.00 0.00 93 1021.6
20260505211749 50 94 0.0 0.0 0.00 0.00 0.00 93 1021.5
20260505210547 49 352 0.0 0.0 0.00 0.00 0.00 94 1021.6
20260505205348 49 316 0.0 0.0 0.00 0.00 0.00 93 1021.4
20260505204149 49 206 0.0 0.0 0.00 0.00 0.00 95 1021.5
20260505202947 48 257 0.0 0.0 0.00 0.00 0.00 96 1021.6
20260505201746 48 289 0.0 0.9 0.00 0.00 0.00 96 1021.3
20260505200551 47 312 0.0 0.0 0.00 0.00 0.00 96 1021.4
20260505195345 48 272 0.0 0.0 0.00 0.00 0.00 95 1021.4
20260505194147 48 239 0.9 1.7 0.00 0.00 0.00 95 1021.3
20260505192947 48 287 0.0 0.0 0.00 0.00 0.00 95 1021.2
20260505191747 48 219 0.9 1.7 0.00 0.00 0.00 95 1021.1
20260505190545 48 285 0.0 0.9 0.00 0.00 0.00 94 1021.1
20260505185345 48 259 0.0 0.0 0.00 0.00 0.00 94 1021.0
20260505184146 48 215 0.9 1.7 0.00 0.00 0.00 93 1020.9
20260505182945 48 329 0.0 0.0 0.00 0.00 0.00 93 1020.9
20260505181747 49 287 0.0 0.0 0.00 0.00 0.00 91 1020.9
20260505180546 49 238 1.7 1.7 0.00 0.00 0.00 91 1021.0
20260505174146 49 270 1.7 2.6 0.00 0.00 0.00 91 1020.8
20260505172947 50 246 1.7 1.7 0.00 0.00 0.00 89 1020.8
20260505171745 50 263 1.7 2.6 0.00 0.00 0.00 89 1020.9
20260505170547 50 250 1.7 2.6 0.00 0.00 0.00 89 1020.9
20260505165348 50 243 0.9 2.6 0.00 0.00 0.00 89 1021.1
20260505164147 50 270 0.0 0.9 0.00 0.00 0.00 89 1021.1
20260505162946 50 213 1.7 1.7 0.00 0.00 0.00 90 1021.0
20260505161747 49 224 0.0 0.9 0.00 0.00 0.00 90 1021.0
20260505160547 49 233 0.9 2.6 0.00 0.00 0.00 91 1021.1
20260505152946 49 252 0.0 0.0 0.00 0.00 0.00 91 1021.2
20260505151746 50 235 0.9 1.7 0.00 0.00 0.00 89 1021.2
20260505150545 50 228 0.9 1.7 0.00 0.00 0.00 89 1021.3
20260505140545 51 311 0.0 0.0 0.00 0.00 0.00 87 1021.2